सभी
Laverton Airport (Laverton, Western Australia) LVO मौसम
|
Laverton, Western Australia (LVO / YLTN)
स्वच्छ आकाश
हल्की हवाएं |
|
16 °C |
There is no TAF data available at LVO or any nearby airports.
Recent LVO METAR history
| Date | Time (AWST) | Flight Rules | Wind Dir. | Speed | Type | Height AGL (ft) | Visibility | Temp (°C) | Temp (°F) | Dew Point (°C) | Dew Point (°F) | Rel. Humid. | Pressure | Density Altitude | Remarks |
|---|---|---|---|---|---|---|---|---|---|---|---|---|---|---|---|
| 04-मई | 10:00 | n/a | 130° | 9 kt | Missing | 16° | 60° | 10° | 50° | 68% | 1027 mb | 1,475 ft | |||
| 04-मई | 09:00 | n/a | 120° | 10 kt | Missing | 15° | 59° | 11° | 51° | 77% | 1027 mb | 1,355 ft | |||
| 04-मई | 08:00 | n/a | 130° | 8 kt | Missing | 13° | 55° | 12° | 53° | 94% | 1027 mb | 1,115 ft | |||
| 04-मई | 07:00 | n/a | 130° | 4 kt | Missing | 10° | 50° | 10° | 50° | 100% | 1026 mb | 785 ft | |||
| 04-मई | 06:00 | n/a | 140° | 4 kt | Missing | 9° | 48° | 9° | 48° | 100% | 1026 mb | 665 ft | |||
| 04-मई | 05:00 | n/a | 130° | 4 kt | Missing | 9° | 48° | 9° | 48° | 100% | 1025 mb | 694 ft | |||
| 04-मई | 04:00 | n/a | 140° | 3 kt | Missing | 9° | 48° | 9° | 48° | 100% | 1025 mb | 694 ft | |||
| 04-मई | 03:00 | n/a | 160° | 4 kt | Missing | 9° | 48° | 9° | 48° | 100% | 1025 mb | 694 ft | |||
| 04-मई | 02:00 | n/a | Calm | Missing | 9° | 48° | 9° | 48° | 100% | 1025 mb | 694 ft | ||||
| 04-मई | 01:00 | n/a | Calm | Missing | 10° | 50° | 10° | 50° | 100% | 1025 mb | 814 ft | ||||
| 04-मई | 00:00 | n/a | Calm | Missing | 10° | 50° | 10° | 50° | 100% | 1025 mb | 814 ft | ||||
| 03-मई | 23:00 | n/a | 140° | 4 kt | Missing | 12° | 53° | 9° | 48° | 82% | 1025 mb | 1,054 ft | |||
| 03-मई | 22:00 | n/a | 140° | 5 kt | Missing | 13° | 55° | 9° | 48° | 77% | 1025 mb | 1,174 ft | |||
| 03-मई | 21:00 | n/a | 140° | 5 kt | Missing | 14° | 57° | 9° | 48° | 72% | 1025 mb | 1,294 ft | |||
| 03-मई | 20:00 | n/a | 150° | 5 kt | Missing | 14° | 57° | 9° | 48° | 72% | 1024 mb | 1,324 ft | |||
| 03-मई | 19:00 | n/a | 150° | 6 kt | Missing | 15° | 59° | 8° | 46° | 63% | 1024 mb | 1,444 ft | |||
| 03-मई | 18:00 | n/a | 160° | 6 kt | Missing | 16° | 60° | 8° | 46° | 59% | 1023 mb | 1,593 ft | |||
| 03-मई | 17:00 | n/a | 180° | 9 kt | Missing | 17° | 62° | 7° | 44° | 52% | 1023 mb | 1,713 ft | |||
| 03-मई | 16:00 | n/a | 180° | 9 kt | Missing | 18° | 64° | 8° | 46° | 52% | 1023 mb | 1,833 ft | |||
| 03-मई | 15:00 | n/a | 170° | 10 kt | Missing | 18° | 64° | 7° | 44° | 49% | 1022 mb | 1,863 ft | |||
| 03-मई | 14:00 | n/a | 160° | 8 kt | Missing | 18° | 64° | 7° | 44° | 49% | 1023 mb | 1,833 ft | |||
| 03-मई | 13:00 | n/a | 190° | 9 kt | Missing | 17° | 62° | 8° | 46° | 55% | 1023 mb | 1,713 ft | |||
| 03-मई | 12:00 | n/a | 180° | 9 kt | Missing | 17° | 62° | 8° | 46° | 55% | 1024 mb | 1,684 ft | |||
| 03-मई | 11:00 | n/a | 170° | 9 kt | Missing | 16° | 60° | 8° | 46° | 59% | 1025 mb | 1,534 ft |
लॉगिन
| Your browser is unsupported. अपना ब्राऊजर अपग्रेड करें |
